Home > Time Zones > World Clock > Weather > U.S.A. > Mesa > Past weeks

Flag for U.S.A. Weather past 2 weeks in Mesa, Arizona, U.S.A.

Now
82 °F

Scattered clouds.


Feels Like: 80 °F
Forecast: 62 / 92 °F
Wind: No wind

Location: Williams Gateway Airport

Current Time: Mar 30, 2015 at 11:30:00 AM

Latest Report: Mar 30, 2015 at 10:47 AM


Visibility: 45 mi

Pressure: 30.06 "Hg

Humidity: 17%

Dew point: 34 °F

Location of MesaLocation

Historic Weather in Mesa — Graph

°F

Mesa temperature yesterday

Maximum temperature yesterday: 91 °F (at 3:47 PM)
Minimum temperature yesterday: 55 °F (at 6:47 AM)
Average temperature yesterday: 68 °F

Past Weeks' High & Low Weather Summary

 TemperatureHumidityPressure
High91 °F (Mar 28, 4:00 PM)94% (Mar 19, 3:15 AM)30.20 "Hg (Mar 19, 3:15 AM)
Low48 °F (Mar 24, 6:47 AM)7% (Mar 27, 4:50 PM)29.87 "Hg (Mar 17, 5:47 PM)
Average66 °F38%30.02 "Hg
* Reported Mar 15 9:50 AM — Mar 30 9:47 AM, Mesa, Weather by CustomWeather, © 2015

Note: Actual official high and low records may vary slightly from our data, if they occured in-between our weather recording intervals... More about our weather records

Advertising

Mesa weather history for previous 24 hours

 ConditionsComfort  
Time TempWeatherWind HumidityBarometerVisibility
9:47 AM
Mon, Mar 30
79 °FScattered clouds.3 mph20%30.06 "Hg45 mi
8:47 AM72 °FScattered clouds.5 mph27%30.05 "Hg45 mi
7:55 AM66 °FScattered clouds.6 mph26%30.04 "Hg45 mi
6:47 AM63 °FScattered clouds.6 mph30%30.03 "Hg45 mi
5:47 AM61 °FPassing clouds.5 mph31%30.01 "Hg20 mi
4:47 AM61 °FPassing clouds.6 mph36%30.00 "Hg20 mi
4:35 AM63 °FClear.5 mph30%30.00 "Hg10 mi
4:15 AM61 °FClear.8 mph34%30.00 "Hg10 mi
3:55 AM63 °FClear.7 mph30%30.00 "Hg10 mi
3:35 AM61 °FClear.6 mph31%29.99 "Hg10 mi
3:15 AM63 °FClear.6 mph27%29.99 "Hg10 mi
2:55 AM63 °FClear.5 mph27%29.99 "Hg10 mi
2:15 AM63 °FClear.6 mph25%30.00 "Hg10 mi
1:55 AM64 °FClear.6 mph24%30.00 "Hg10 mi
1:35 AM63 °FClear.7 mph25%30.00 "Hg10 mi
1:15 AM63 °FClear.7 mph27%30.00 "Hg10 mi
12:55 AM64 °FClear.5 mph26%30.00 "Hg10 mi
12:35 AM66 °FClear.No wind24%30.00 "Hg10 mi
12:15 AM63 °FClear.7 mph27%30.00 "Hg10 mi
11:56 PM
Sun, Mar 29
63 °FPassing clouds.7 mph30%29.99 "Hg20 mi
10:48 PM68 °FPassing clouds.8 mph21%29.99 "Hg20 mi
9:50 PM70 °FPassing clouds.5 mph21%29.99 "Hg20 mi
8:47 PM75 °FPassing clouds.5 mph16%29.98 "Hg20 mi
7:47 PM79 °FPassing clouds.5 mph13%29.97 "Hg20 mi
6:47 PM84 °FPassing clouds.5 mph10%29.96 "Hg20 mi
5:47 PM90 °FPassing clouds.5 mph7%29.96 "Hg35 mi
3:47 PM91 °FScattered clouds.3 mph8%29.97 "Hg45 mi
1:47 PM90 °FScattered clouds.No wind8%30.01 "Hg35 mi
12:47 PM90 °FScattered clouds.3 mph9%30.05 "Hg35 mi
11:48 AM86 °FScattered clouds.5 mph12%30.07 "Hg35 mi
Weather by CustomWeather, © 2015

See weather overviewHow to use our weather pages